Location: ?????????
(41.1143°N, 22.7905°E)
Time: 22:59:39
(UTC+00:00)

Daily predictions for brighter satellites

Satellite Brightness Start Highest point End
(mag) Time Altitude Azimuth Time Altitude Azimuth Time Altitude Azimuth
IGS 5A 3.3 15:25:31 10° SSE 15:29:27 72° ENE 15:33:25 10° N
MOS 1 Rocket 4.3 15:25:33 10° SE 15:29:43 28° ENE 15:34:04 10° N
Gbstr 26 Del rocket 3.4 15:26:00 10° WSW 15:30:11 48° NNW 15:33:54 10° NE
Cosmos 1743 2.4 15:27:23 10° N 15:30:37 79° W 15:33:50 10° S
Cosmos 1900 4.3 15:30:24 10° NNW 15:35:26 72° ENE 15:40:20 10° SE
Cosmos 2151 2.9 15:31:21 10° N 15:35:32 83° E 15:39:41 10° S
Cosmos 1726 Rocket 4.1 15:31:38 10° SSE 15:35:58 41° E 15:40:16 10° NNE
BREEZE-M DEB (TANK) 3.7 15:35:10 10° NW 15:38:06 33° NNE 15:45:40 10° E
SMAP 3.1 15:34:33 10° SSE 15:39:05 55° ENE 15:43:39 10° N
IRIDIUM 104 4.3 15:34:01 10° N 15:39:15 72° E 15:44:27 10° S
Meteor 1-20 Rocket 4.1 15:33:52 10° N 15:39:21 79° E 15:44:50 10° SSE
Cosmos 2297 Rocket 2.8 15:36:05 10° NNW 15:41:41 64° WSW 15:47:15 10° S
Landsat 7 4.0 15:38:49 10° SE 15:43:15 47° ENE 15:47:43 10° N
Hubble Space Telescope 3.3 15:42:44 10° S 15:43:44 11° S 15:44:46 10° SSE
GEOS 3 Rocket 3.7 15:39:22 10° NE 15:44:46 84° SE 15:50:08 10° SW
Cosmos 2084 Rocket 3.6 15:41:38 10° NW 15:45:50 75° SW 15:50:01 10° SSE
NOSS 7 (H) 4.2 15:43:07 10° NNW 15:46:02 57° NE 15:49:25 10° SE
Cosmos 1602 Rocket 3.9 15:43:25 10° NNW 15:47:46 69° W 15:52:02 10° S
YAOGAN 1 4.1 15:45:34 10° E 15:47:53 14° ENE 15:50:11 10° NNE
IRIDIUM 114 4.3 15:43:08 10° N 15:48:23 87° E 15:53:37 10° S
Cosmos 990 Rocket 4.1 15:45:48 10° SSW 15:50:55 81° WNW 15:56:05 10° NNE
COSMOS 2455 4.2 15:48:09 10° SSE 15:52:12 19° ESE 15:55:26 13° ENE
SL-16 R/B 3.3 15:46:37 10° N 15:52:38 53° WNW 15:58:35 10° SW
Okean 1-7 Rocket 3.6 15:50:52 10° N 15:55:15 87° W 15:59:36 10° S
BREEZE M DEB (TANK) 3.2 15:53:20 10° W 15:55:36 26° NNW 15:56:59 14° NNE
CORIOLIS 4.2 15:54:57 10° SSE 16:00:16 85° WSW 16:05:39 10° NNW
Cosmos 1980 Rocket 2.2 15:55:49 10° S 16:01:24 67° ESE 16:07:00 10° NNE
SKYMED 2 4.3 15:58:30 10° NNE 16:02:25 32° E 16:06:19 10° SSE
Okean 1 4.2 15:59:34 10° SE 16:02:27 23° E 16:04:05 17° NE
Cosmos 1844 Rocket 4.4 16:02:07 10° NNE 16:04:08 12° NE 16:04:08 12° NE
Cosmos 2219 3.8 15:59:35 10° N 16:04:47 34° ENE 16:09:58 10° ESE
Aureole 1 Rocket 3.3 16:00:37 10° S 16:04:52 62° ESE 16:10:18 10° NNE
ARIANE 5 R/B 2.5 16:05:17 10° SSE 16:10:20 85° ENE 16:15:30 10° NNW
IRS-1C 4.1 16:05:47 10° SSE 16:11:06 84° ENE 16:16:27 10° NNW
Cosmos 1953 Rocket 3.6 16:08:06 10° N 16:12:31 59° E 16:16:54 10° SSE
Cosmos 2263 Rocket 2.2 16:07:45 10° NNW 16:13:22 57° ENE 16:18:56 10° SE
Cosmos 1867 4.2 16:09:43 10° NW 16:15:06 61° WSW 16:20:25 10° SSE
Helios 1A Rocket 4.3 16:18:12 16° ESE 16:18:12 16° ESE 16:19:35 10° SE
Meteor 1-5 Rocket 4.1 16:12:30 10° N 16:17:55 84° E 16:23:28 10° S
Cosmos 2369 3.9 16:13:25 10° S 16:18:55 51° ESE 16:23:23 16° NE
Cosmos 1825 Rocket 4.0 16:16:05 10° NNW 16:20:22 62° W 16:24:35 10° S
SAR-Lupe-4 3.9 16:19:42 10° S 16:23:13 66° WSW 16:26:46 10° NNW
Meteor 2-10 4.2 16:18:05 10° N 16:23:28 58° ENE 16:28:58 10° SSE
COSMO-SKYMED 1 3.0 16:22:48 24° NE 16:24:36 35° E 16:28:23 10° SSE
Cosmos 1076 Rocket 3.5 16:23:14 10° N 16:27:34 84° W 16:31:53 10° S
Cosmos 1655 Rocket 4.0 16:22:03 10° N 16:28:18 89° W 16:34:31 10° S
USA 81 3.9 16:27:48 10° N 16:33:04 70° E 16:38:18 10° SSE
Cosmos 2227 Rocket 2.9 16:27:49 10° NNW 16:33:20 56° WSW 16:38:50 10° S
SPOT 1/Viking Rocket 3.5 16:29:01 10° SSE 16:34:10 68° ENE 16:39:21 10° N
Cosmos 1697 Rocket 4.4 16:36:29 10° WSW 16:41:14 28° NW 16:46:02 10° N
Cosmos 2058 Rocket 3.2 16:40:02 10° SSW 16:44:30 75° W 16:48:59 10° N
Cosmos 2333 Rocket 3.5 16:44:10 10° SSE 16:47:30 23° ESE 16:47:30 23° ESE
Cosmos 1538 Rocket 4.2 16:43:58 10° NNW 16:49:15 73° WSW 16:54:34 10° S
EXPRESS MD2 4.0 16:56:46 10° W 16:59:01 33° NNW 16:59:01 33° NNW
Cosmos 2322 Rocket 3.9 16:55:31 10° SSE 16:57:11 17° SE 16:57:11 17° SE
USA 59 Rocket 2.1 16:58:26 10° SSE 16:59:19 14° SSE 16:59:19 14° SSE
Resurs 1-3 3.4 17:00:14 10° SSE 17:04:31 89° WSW 17:08:51 10° NNW
Cosmos-2242 4.1 17:03:44 10° SSW 17:07:45 42° WNW 17:11:23 12° N
USA 308 4.1 17:07:07 10° SSW 17:08:32 24° SSW 17:08:32 24° SSW
Spot 4 Rocket 4.1 17:05:58 10° S 17:11:03 78° WSW 17:16:12 10° NNW
Nadezhda 2 Rocket 4.4 17:05:55 10° N 17:12:03 83° W 17:18:09 10° S
Cosmos 1898 Rocket 4.5 17:07:59 10° SW 17:12:52 43° WNW 17:16:31 17° N
USA 215 4.5 17:12:07 23° NNE 17:12:59 24° N 17:17:58 10° NW
Cosmos 1553 Rocket 4.1 17:07:30 10° SSW 17:13:38 74° W 17:19:55 10° N
S3M 4.0 17:08:03 10° SSE 17:14:11 53° E 17:14:31 53° E
DMSP B5D1-3 4.4 17:15:02 63° SE 17:15:02 63° SE 17:19:42 10° S
IRAS Rocket 4.1 17:11:45 10° SSE 17:17:14 89° WSW 17:22:44 10° NNW
Cosmos 2082 3.8 17:16:17 10° NNW 17:22:00 76° WSW 17:27:41 10° SSE
Hubble Space Telescope 3.3 17:21:31 10° SSW 17:22:41 11° S 17:22:41 11° S
YAOGAN 1 3.3 17:19:08 10° S 17:23:16 52° W 17:27:26 10° NNW
Meteor 2-6 Rocket 4.3 17:20:54 10° SSW 17:26:33 79° W 17:29:21 32° N
Cosmos 1937 Rocket 4.5 17:23:30 10° SW 17:28:26 43° WNW 17:30:51 26° N
SL-16 R/B 2.1 17:24:14 10° SSW 17:29:26 71° SSE 17:29:26 71° SSE
Cosmos 923 Rocket 4.1 17:25:35 10° NNW 17:30:46 72° WSW 17:32:38 39° S
Cosmos 1745 Rocket 3.8 17:27:51 10° N 17:34:02 79° E 17:40:09 10° S
SL-24 R/B - RUBIN 2 4.5 17:28:57 10° SW 17:34:17 53° NW 17:34:52 50° NNW
COSMOS 2455 3.0 17:31:29 10° SW 17:37:29 68° WNW 17:38:36 56° N
BREEZE-M DEB (TANK) 3.8 17:26:26 10° WNW 17:43:57 70° NNE 17:44:17 69° NE
Cosmos 1980 Rocket 4.4 17:41:49 10° W 17:45:53 20° NW 17:49:20 12° N
Cosmos 1844 Rocket 4.2 17:43:33 10° NNW 17:45:50 25° NNW 17:45:50 25° NNW
Cosmos 2278 4.3 17:49:57 10° SSW 17:54:09 51° SW 17:54:09 51° SW
Cosmos 2360 Rocket 4.3 18:11:54 10° SSW 18:13:06 17° SSW 18:13:06 17° SSW
Cosmos 2333 Rocket 4.1 18:27:05 10° SW 18:29:34 25° WSW 18:29:34 25° WSW
